Home   Weather   Jakobstad   Past weeks

Flag for Finland Past Weather in Jakobstad, Finland — Yesterday and Last 2 Weeks

Now
32 °F

Snow flurries. Cloudy.


Feels Like: 21 °F
Forecast: 31 / 34 °F
Wind: 16 mph from Northwest

Location: Kruunupyy

Current Time: Apr 26, 2017 at 5:19:06 pm

Latest Report: Apr 26, 2017 at 4:20 pm


Visibility: 2 mi

Pressure: 29.27 "Hg

Humidity: 93%

Dew Point: 30 °F

Location of JakobstadLocation

Past Weather in Jakobstad — Graph

°F

Jakobstad Temperature Yesterday

Maximum temperature yesterday: 45 °F (at 12:20 pm)
Minimum temperature yesterday: 27 °F (at 12:50 am)
Average temperature yesterday: 37 °F

High & Low Weather Summary for the Past Weeks

 TemperatureHumidityPressure
High46 °F (Apr 21, 4:20 pm)100% (Apr 12, 12:20 am)30.45 "Hg (Apr 12, 12:20 am)
Low10 °F (Apr 14, 6:20 am)30% (Apr 18, 1:20 pm)29.09 "Hg (Apr 21, 11:20 pm)
Average31 °F74%29.76 "Hg
* Reported Apr 11 3:50 pm — Apr 26 3:50 pm, Jakobstad, Weather by CustomWeather, © 2017

Note: Actual official high and low records may vary slightly from our data, if they occured in-between our weather recording intervals... More about our weather records

Advertising

Jakobstad Weather History for the Previous 24 Hours

Scroll right to see more
 ConditionsComfort  
Time TempWeatherWind HumidityBarometerVisibility
3:50 pm
Wed, Apr 26
32 °FLight rain. Cloudy.20 mph93%29.27 "Hg1 mi
3:20 pm32 °FLight rain. Mostly cloudy.20 mph93%29.24 "Hg1 mi
2:50 pm32 °FLight rain. Cloudy.17 mph93%29.24 "Hg1 mi
2:20 pm32 °FLight rain. Mostly cloudy.20 mph93%29.24 "Hg1 mi
1:50 pm32 °FLight rain. Broken clouds.20 mph93%29.24 "Hg1 mi
1:20 pm32 °FLight rain. More clouds than sun.22 mph93%29.24 "Hg1 mi
12:50 pm32 °FLight rain. Partly sunny.21 mph93%29.24 "Hg1 mi
12:20 pm32 °FLight rain. Mostly cloudy.21 mph93%29.24 "Hg1 mi
11:50 am32 °FLight rain. Partly sunny.23 mph93%29.24 "Hg1 mi
11:20 am32 °FLight rain. More clouds than sun.21 mph93%29.24 "Hg1 mi
10:50 am32 °FLight snow. Cloudy.22 mph93%29.27 "Hg1 mi
10:20 am32 °FLight snow. Mostly cloudy.22 mph93%29.27 "Hg1 mi
9:50 am32 °FLight snow. Broken clouds.21 mph93%29.27 "Hg1 mi
9:20 am32 °FSnow. Cloudy.20 mph93%29.30 "Hg1 mi
8:50 am32 °FLight snow. Dense fog.18 mph93%29.30 "Hg1 mi
8:20 am32 °FLight rain. Dense fog.18 mph93%29.33 "Hg1 mi
7:50 am34 °FLight rain. Mostly cloudy.15 mph87%29.33 "Hg3 mi
7:20 am34 °FLight rain. Mostly cloudy.16 mph87%29.36 "Hg4 mi
6:50 am34 °FLight rain. Mostly cloudy.18 mph87%29.36 "Hg5 mi
6:20 am34 °FLight rain. Mostly cloudy.17 mph87%29.39 "Hg6 mi
5:50 am32 °FLight rain. Mostly cloudy.14 mph100%29.39 "Hg6 mi
5:20 am32 °FLight rain. Partly cloudy.15 mph100%29.42 "Hg2 mi
4:50 am32 °FLight rain. Partly cloudy.14 mph100%29.45 "Hg2 mi
4:20 am32 °FLight rain. Overcast.13 mph100%29.45 "Hg2 mi
3:50 am34 °FLight rain. Overcast.12 mph93%29.47 "HgN/A
3:20 am34 °FOvercast.10 mph87%29.47 "HgN/A
2:50 am36 °FMostly cloudy.7 mph81%29.50 "HgN/A
2:20 am36 °FOvercast.8 mph81%29.53 "HgN/A
1:50 am36 °FMostly cloudy.6 mph81%29.53 "HgN/A
1:20 am36 °FMostly cloudy.5 mph81%29.56 "HgN/A
12:50 am36 °FOvercast.7 mph81%29.56 "HgN/A
12:20 am36 °FMostly cloudy.6 mph87%29.56 "HgN/A
11:50 pm
Tue, Apr 25
36 °FOvercast.3 mph87%29.59 "HgN/A
11:20 pm36 °FSprinkles. Partly cloudy.8 mph87%29.59 "HgN/A
10:50 pm36 °FPartly cloudy.7 mph81%29.59 "HgN/A
10:20 pm36 °FMostly cloudy.6 mph81%29.62 "HgN/A
9:50 pm36 °FPartly cloudy.6 mph81%29.62 "HgN/A
9:20 pm36 °FPartly sunny.8 mph87%29.62 "HgN/A
8:50 pm37 °FPartly sunny.12 mph81%29.62 "HgN/A
8:20 pm37 °FSprinkles. Overcast.10 mph81%29.62 "HgN/A
7:50 pm37 °FSprinkles. Partly sunny.12 mph81%29.62 "HgN/A
7:20 pm37 °FLight rain. Broken clouds.13 mph81%29.62 "HgN/A
6:50 pm37 °FLight rain. Overcast.12 mph81%29.62 "HgN/A
6:20 pm39 °FLight rain. More clouds than sun.12 mph75%29.62 "HgN/A
5:50 pm39 °FSprinkles. Cloudy.10 mph75%29.62 "HgN/A
5:20 pm41 °FLight rain. Cloudy.16 mph66%29.62 "HgN/A
Weather by CustomWeather, © 2017

See weather overviewHow to use our weather pages